sat.trackr.live / text

‹ back to catalog

STARLINK-33928

NORAD 64003 · 2025-101K

PAYLOAD ACTIVE UNKNOWN

§ Identity

Operator
Country
US
Launch date
2025-05-14
Launch site
AFETR
Launch vehicle
Mass (kg)
RCS (m²)

Purposes: comms

External: N2YO · Heavens-Above · Gunter

§ Orbital elements

Epoch: 2026-05-25T02:06:05.203872Z

Period
94.27 min
Inclination
42.9956°
Eccentricity
0.0001824
Mean motion
15.27585823 rev/d
Perigee alt
481.8 km
Apogee alt
484.3 km
Semi-major
6,861.2 km
B*
5.4055e-4
RAAN
286.1345°
Arg perigee
55.8954°
Mean anomaly
304.2070°
Rev number
5,874

§ Raw data

STARLINK-339281 64003U 25101K   26145.08756023  .00014645  00000+0  54055-3 0  99922 64003  42.9956 286.1345 0001824  55.8954 304.2070 15.27585823 58746

JSON: /api/v1/satellites/64003 · /tle

For live sub-satellite position, see the globe view (requires WebGL).

§ Visibility from observer

Set your observer location to see the next 7 days of passes ≥ 10°. The values pass through the URL so the page stays shareable.

No JS? Fill the form by hand. The geolocation button needs JavaScript.